User: anonymous   Login
Location: Crocus Hill
(18.2167°N, 63.0667°W)
Time: 16:55:08
(UTC+00:00)
Language:

Cosmos 1300 - Orbit

View from above orbital plane
View from above orbital plane
View from above satellite
View from above satellite

Ground track
Ground track

The orbit data is extracted from the following two-line orbital elements,

1 12785U 81082A   20100.38042846  .00000577  00000-0  27094-4 0  9995
2 12785  82.5018 136.9971 0000572  77.5921 293.0835 15.17653369107598
Epoch (UTC): 09 April 2020 09:07:49
Eccentricity: 0.0000572
inclination: 82.5018°
perigee height: 512 km
apogee height: 513 km
right ascension of ascending node: 136.9971°
argument of perigee: 77.5921°
revolutions per day: 15.17653369
mean anomaly at epoch: 293.0835°
orbit number at epoch: 10759

The dashed part of the orbit path shows where the satellite is in the earth's shadow,  

DLR